Location: Unspecified
(0.0000°N, 0.0000°E)
Time: 00:07:44
(UTC+00:00)

Transit 2A Rocket - All Passes

Search period start: 20 November 2019 00:00
Search period end: 30 November 2019 00:00
Orbit: 594 x 909 km, 66.7° (Epoch: 18 November)

Date Brightness Start Highest point End Pass type
(mag) Time Alt. Az. Time Alt. Az. Time Alt. Az.
20 Nov - 07:27:10 10° N 07:31:50 52° ENE 07:36:58 10° SSE daylight
20 Nov - 19:57:50 10° SSW 20:03:11 53° WNW 20:08:04 10° N visible
21 Nov - 06:45:36 10° NNE 06:49:27 24° ENE 06:53:35 10° SE daylight
21 Nov - 08:28:12 10° WNW 08:31:47 20° WSW 08:35:37 10° SSW daylight
21 Nov - 19:15:13 10° SSW 19:20:45 72° ESE 19:25:46 10° NNE visible
22 Nov - 06:06:14 10° ENE 06:07:04 10° ENE 06:07:56 10° E daylight
22 Nov - 07:44:36 10° NW 07:49:13 42° WSW 07:54:16 10° S daylight
22 Nov - 18:33:16 10° S 18:38:13 33° ESE 18:42:46 10° NE visible
22 Nov - 20:17:29 10° WSW 20:20:26 15° WNW 20:23:15 10° NW visible
23 Nov - 07:01:51 10° NNW 07:06:43 88° ENE 07:12:05 10° SSE daylight
23 Nov - 17:52:19 10° SSE 17:55:37 16° ESE 17:58:46 10° ENE daylight
23 Nov - 19:33:16 10° SW 19:38:03 32° WNW 19:42:28 10° N visible
24 Nov - 06:19:47 10° N 06:24:18 39° ENE 06:29:14 10° SE daylight
24 Nov - 08:04:50 10° W 08:06:48 12° WSW 08:08:49 10° SW daylight
24 Nov - 18:50:11 10° SSW 18:55:39 70° WNW 19:00:36 10° NNE visible
25 Nov - 05:38:34 10° NNE 05:41:55 18° ENE 05:45:27 10° ESE daylight
25 Nov - 07:20:04 10° NW 07:24:11 26° WSW 07:28:36 10° SSW daylight
25 Nov - 18:07:48 10° S 18:13:10 55° ESE 18:18:03 10° NNE visible
26 Nov - 06:36:49 10° NNW 06:41:37 55° WSW 06:46:55 10° S daylight
26 Nov - 17:26:07 10° SSE 17:30:37 26° ESE 17:34:47 10° NE daylight
26 Nov - 19:09:09 10° WSW 19:12:54 19° WNW 19:16:25 10° NNW visible
27 Nov - 05:54:19 10° NNW 05:59:09 67° ENE 06:04:30 10° SSE daylight
27 Nov - 16:45:56 10° SE 16:48:00 12° ESE 16:50:00 10° E daylight
27 Nov - 18:25:27 10° SW 18:30:30 41° WNW 18:35:09 10° N visible
28 Nov - 05:12:28 10° N 05:16:45 30° ENE 05:21:23 10° SE visible
28 Nov - 06:56:05 10° WNW 06:59:10 16° WSW 07:02:26 10° SSW daylight
28 Nov - 17:42:37 10° SSW 17:48:05 90° SW 17:53:02 10° NNE daylight
29 Nov - 04:31:48 10° NE 04:34:22 14° ENE 04:37:04 10° ESE visible
29 Nov - 06:12:05 10° NW 06:16:34 34° WSW 06:21:27 10° S daylight
29 Nov - 17:00:27 10° S 17:05:35 41° ESE 17:10:16 10° NE daylight
29 Nov - 18:46:16 10° W 18:47:44 11° WNW 18:49:11 10° NW visible
